Location: Barbignat
(46.2736°N, 3.1176°E)
Time: 05:08:03
(UTC+00:00)

Daily predictions for brighter satellites

Satellite Brightness Start Highest point End
(mag) Time Altitude Azimuth Time Altitude Azimuth Time Altitude Azimuth
Cosmos 2227 Rocket 4.5 03:45:37 15° NNE 03:45:37 15° NNE 03:46:36 10° NNE
CZ-4C R/B 3.0 03:48:11 74° ESE 03:48:11 74° ESE 03:55:39 10° SE
Nadezhda 4 Rocket 4.3 04:06:12 43° NNE 04:08:05 63° ENE 04:14:11 10° SSE
BREEZE-M DEB (TANK) 4.4 04:06:11 48° SSW 04:08:36 65° SSE 04:12:58 10° ENE
COSMO-SKYMED 1 4.3 04:08:06 10° SE 04:11:52 30° ENE 04:12:09 29° ENE
SL-16 R/B 4.2 04:21:43 17° S 04:21:43 17° S 04:22:56 10° S
ATLAS 5 CENTAUR R/B 3.9 04:24:32 18° NNE 04:24:32 18° NNE 04:26:02 10° NNE
Cosmos 1603 4.1 04:23:05 51° NNE 04:24:09 60° ENE 04:29:47 10° SE
NOSS 2-1 (C) 4.4 04:26:32 70° N 04:27:09 78° NE 04:34:37 10° SE
NOSS 2-1 (D) 4.3 04:30:00 70° NNW 04:30:43 82° NE 04:38:14 10° SE
Meteor 2-11 Rocket 4.3 04:29:09 10° S 04:35:14 84° W 04:41:24 10° N
ALOS 3.7 04:40:31 10° NNE 04:44:54 38° E 04:49:15 10° SSE
Okean 1 4.5 04:49:38 25° NNE 04:51:30 42° ENE 04:55:17 10° SSE
Cosmos 1452 Rocket 4.4 04:47:04 10° S 04:52:08 50° ESE 04:57:14 10° NNE
Cosmos 2034 Rocket 3.9 04:46:02 10° SSW 04:52:17 64° WNW 04:58:38 10° N
USA 234 3.1 04:46:47 10° NE 04:53:18 74° NNW 04:55:38 43° WSW
Cosmos 1140 Rocket 3.6 04:54:38 55° SW 04:54:38 55° SW 04:59:14 10° S
SKYMED 2 3.5 04:55:30 10° SSE 04:59:50 89° E 05:00:49 54° NNW
Cosmos 2263 Rocket 2.4 04:57:48 10° SSW 05:03:21 71° ESE 05:08:54 10° NNE
STARLINK 1050 3.4 05:06:33 69° ESE 05:06:33 69° ESE 05:09:40 10° ESE
Cosmos 2195 Rocket 4.5 05:00:52 10° N 05:07:15 89° W 05:13:35 10° S
Cosmos 724 4.4 05:06:45 43° W 05:08:13 54° NW 05:14:02 10° NNE
STARLINK 1055 3.2 05:09:26 75° SE 05:09:26 75° SE 05:12:40 10° ESE
Cosmos 1461 3.6 05:10:13 40° SW 05:10:13 40° SW 05:13:45 10° S
STARLINK 1044 4.0 05:11:48 37° SE 05:11:48 37° SE 05:13:44 10° SE
STARLINK 1022 3.1 05:11:50 79° SSE 05:11:50 79° SSE 05:15:10 10° SE
Cosmos 1484 Rocket 2.9 05:08:12 10° N 05:14:32 22° SSW 05:15:59 10° SSW
Okean 1-7 2.9 05:10:51 37° NNW 05:12:34 77° W 05:16:57 10° S
Meteor 1-18 Rocket 4.2 05:07:38 10° N 05:13:14 82° E 05:18:48 10° SSE
Helios 1A Rocket 4.0 05:10:47 10° NNE 05:14:41 45° E 05:18:32 10° S
STARLINK 1042 3.0 05:15:06 79° SSW 05:15:06 79° SSW 05:18:34 10° SE
Cosmos 1092 Rocket 3.9 05:09:07 10° NNW 05:15:14 66° W 05:21:17 10° S
STARLINK 1056 3.0 05:18:03 75° SW 05:18:08 76° SSW 05:21:38 10° SE
Cosmos 2227 4.1 05:14:35 10° SW 05:20:18 67° WNW 05:26:06 10° NNE
STARLINK 1054 3.0 05:21:01 69° WSW 05:21:13 72° SSW 05:24:42 10° SE
PSLV R/B 3.9 05:17:22 10° N 05:21:24 57° WNW 05:25:27 10° SSW
Cosmos 2297 Rocket 4.0 05:23:15 14° NNW 05:23:15 14° NNW 05:25:00 10° N
STARLINK 1062 3.1 05:23:49 63° WSW 05:24:08 68° SW 05:27:37 10° SE
Starlink Launch 2 trailer 4.4 05:25:53 20° S 05:25:53 20° S 05:27:00 10° SSE
Cosmos 2227 Rocket 4.0 05:27:28 14° NNW 05:27:28 14° NNW 05:29:26 10° N
FENGYUN 3A 3.6 05:21:13 10° NNE 05:26:39 88° ESE 05:32:01 10° SSW
STARLINK 1053 3.2 05:26:59 57° WSW 05:27:25 64° SW 05:30:54 10° SE
GEOS 3 Rocket 4.2 05:23:38 10° S 05:28:20 37° WSW 05:29:46 31° W
STARLINK 1061 3.2 05:29:40 52° W 05:30:13 61° SW 05:33:41 10° SE
CZ-4B R/B 3.5 05:26:58 10° NNE 05:32:36 74° ESE 05:38:14 10° S
SWAS 4.4 05:28:24 10° SSW 05:32:43 87° WNW 05:37:05 10° NNE
STARLINK 1067 3.3 05:32:38 47° W 05:33:18 57° SW 05:36:45 10° SE
CZ-4C R/B 3.8 05:33:25 24° W 05:35:38 28° WSW 05:42:17 10° SSW
STARLINK 1058 3.4 05:35:32 43° W 05:36:18 54° SW 05:39:44 10° SE
STARLINK 1043 3.5 05:38:28 39° W 05:39:21 51° SW 05:42:46 10° SE
STARLINK 1065 3.6 05:41:21 36° W 05:42:20 48° SW 05:45:44 10° SE
FALCON 9 DEB 4.5 05:44:21 15° SSW 05:44:21 15° SSW 05:45:21 10° S
STARLINK 1063 3.7 05:44:24 33° W 05:45:31 46° SW 05:48:54 10° SE
USA 116 4.3 05:41:59 10° S 05:46:16 51° W 05:51:06 10° NNW
Cosmos 1943 3.5 05:43:14 21° NW 05:46:35 44° WSW 05:51:52 10° S
METEOR-M 4.1 05:42:03 10° N 05:47:20 61° WNW 05:52:36 10° SSW
Cosmos 2221 Rocket 3.5 05:43:31 10° NNW 05:47:57 77° W 05:52:20 10° S
COSMO-SKYMED 1 3.4 05:44:12 10° SSW 05:48:00 29° W 05:49:21 24° WNW
Cosmos 2056 Rocket 4.4 05:47:27 24° WNW 05:48:01 24° NW 05:52:11 10° N
STARLINK 1064 3.7 05:47:15 30° W 05:48:28 43° SW 05:51:49 10° SE
Meteor 1-25 Rocket 4.4 05:43:42 10° SW 05:49:03 46° WNW 05:54:32 10° N
Cosmos 1346 Rocket 2.6 05:45:39 10° SSW 05:49:30 73° W 05:53:23 10° N
PAYLOAD B 4.2 05:44:58 10° N 05:50:25 62° WNW 05:55:52 10° SSW
STARLINK 1041 3.8 05:50:12 28° W 05:51:31 41° SW 05:54:51 10° SSE
H-2A R/B 3.9 05:48:51 10° NNE 05:52:28 45° E 05:56:06 10° S
Meteor 1-14 Rocket 4.3 05:46:59 10° SSW 05:52:51 62° WNW 05:58:48 10° N
Meteor 2-13 Rocket 4.5 05:47:59 10° N 05:54:09 90° ESE 06:00:19 10° S
STARLINK 1038 3.9 05:53:11 26° W 05:54:37 39° SW 05:57:54 10° SSE
Cosmos 2180 Rocket 4.5 05:50:16 10° S 05:56:23 88° ESE 06:02:36 10° N
SJ-7 4.2 05:52:22 10° N 05:56:25 81° WNW 06:00:23 10° SSW
STARLINK 1046 4.0 05:56:09 24° W 05:57:41 36° SW 06:00:57 10° SSE
Cosmos 2266 Rocket 4.4 05:52:37 10° N 05:58:52 66° E 06:04:57 10° SSE
Okean O Rocket 1.7 05:55:18 10° N 05:59:36 55° WNW 06:03:54 10° SSW
STARLINK 1039 4.1 05:59:07 22° W 06:00:46 34° SW 06:04:00 10° SSE
STARLINK 1045 4.1 06:00:27 21° W 06:02:09 34° SW 06:05:22 10° SSE
Okean 3 3.4 06:01:42 10° NNW 06:05:52 62° W 06:09:59 10° S
ATLAS CENTAUR R/B 3.2 06:04:00 10° NNW 06:07:33 24° NE 06:10:52 10° E
ATLAS 5 CENTAUR R/B 3.7 06:06:05 11° NW 06:07:50 13° NNW 06:10:21 10° NNE
Cosmos 1733 Rocket 3.0 06:04:07 10° S 06:08:25 88° ESE 06:12:47 10° N
Meteor 1-19 Rocket 4.5 06:05:06 10° NNW 06:10:19 45° W 06:15:37 10° SSW
SMAP 3.3 06:08:28 10° NNE 06:13:09 76° ESE 06:17:48 10° S
Cosmos 371 Rocket 3.3 06:09:01 10° SSW 06:13:51 88° ESE 06:18:46 10° NNE
Meteor 1-5 Rocket 4.4 06:07:59 10° S 06:13:57 86° E 06:19:50 10° NNE
Meteor 2-4 Rocket 3.7 06:11:11 10° NNW 06:16:39 62° W 06:21:56 10° S
Okean-O 3.9 06:12:36 10° NNE 06:16:52 45° E 06:21:07 10° S
Cosmos 44 3.1 06:15:48 10° SW 06:20:33 78° NW 06:25:05 10° NE
CZ-4 R/B 3.9 06:18:46 10° NE 06:21:59 24° E 06:25:13 10° SSE
ALOS 3.2 06:18:16 10° N 06:22:09 26° WNW 06:26:01 10° WSW
Cosmos 1340 3.6 06:19:39 10° SW 06:22:52 26° WNW 06:26:07 10° NNW
Envisat 3.9 06:21:04 10° NNE 06:26:03 54° E 06:31:01 10° S
Cosmos 1500 3.2 06:22:16 10° SSW 06:26:05 64° W 06:29:54 10° N
Cosmos 1515 4.4 06:22:39 10° NNW 06:26:08 34° W 06:29:36 10° SSW
Cosmos 2279 Rocket 4.3 06:20:57 10° SSW 06:26:51 45° WNW 06:32:49 10° N
IRS-1C Rocket 4.1 06:23:55 10° NNE 06:29:13 82° WNW 06:34:28 10° SSW
IRIDIUM 106 4.4 06:24:31 10° N 06:29:46 87° E 06:35:00 10° S
Cosmos 1452 Rocket 4.4 06:30:08 10° WSW 06:34:32 26° NW 06:38:58 10° N
ADEOS Rocket 3.3 06:27:36 10° S 06:34:37 71° WSW 06:40:57 10° NNW
AQUARIUS 4.1 06:30:35 10° N 06:35:05 71° WNW 06:39:33 10° SSW
USA 234 3.9 06:29:51 10° NE 06:35:49 39° NNW 06:41:45 10° WNW
Cosmos 1674 Rocket 3.6 06:32:34 10° NNW 06:36:52 58° W 06:41:05 10° S
Cosmos 1655 Rocket 4.5 06:40:13 10° NNW 06:45:55 39° W 06:51:36 10° SSW
